(200985) = 2002 CH130

Discovered at Socorro on 2002-02-07 by LINEAR.

Orbit

Orbit type: Main Belt

Note: WebGL enabled browser required.

epoch2023-09-13.0
epoch JD2460200.5
perihelion date2021-02-03.58724
perihelion JD2459249.08724
argument of perihelion (°)336.49570
ascending node (°)184.36437
inclination (°)4.33844
eccentricity0.1352833
perihelion distance (AU)2.1005084
Tisserand w.r.t. Jupiter3.5
ΔV w.r.t. Earth (km/sec)9.1
semimajor axis (AU)2.4291290
mean anomaly (°)247.68343
mean daily motion (°/day)0.26033230
aphelion distance (AU)2.758
period (years)3.79
P-vector [x]-0.94463370
P-vector [y]0.31177598
P-vector [z]0.10228834
Q-vector [x]-0.32807625
Q-vector [y]-0.89195472
Q-vector [z]-0.31109927
absolute magnitude17.09
phase slope0.15
uncertainty0
referenceMPEC 2023-Y63
observations used378
oppositions14
arc length (days)9485
first opposition used1997
last opposition used2023
residual rms (arc-secs)0.73
perturbers coarse indicatorM-v
perturbers precise indicator003Ek
first observation date used1997-12-29.0
last observation date used2023-12-18.0
computer nameMPCLINUX
JD of orbit computation2455842.577863
perihelion JD uncertainty (days)1.4850E-04
argument of perihelion uncertainty (°)7.2083E-05
ascending node uncertainty (°)6.4415E-05
inclination uncertainty (°)6.9250E-06
eccentricity uncertainty 7.4171E-08
perihelion distance uncertainty (AU)1.6651E-07
Minimum Orbit Intersection Distances (in AU)
for orbit epoch: 2460200.5, reference: E2023-Y63
Mercury1.72143
Venus1.38562
Earth1.10821
Mars0.44881
Jupiter2.2216
Saturn6.63677
Uranus16.3459
Neptune27.1502

Observations

384 total observations over interval: 1997 12 29.42212 – 2023 12 18.227383
These data are available for download (format description).

Date (UT) J2000 RA J2000 Dec Magn Location Ref
1997 12 29.42212 07 47 54.91 +13 32 50.0 20.2 V 691 – Steward Observatory, Kitt Peak-Spacewatch MPS 118368
1997 12 29.43369 07 47 54.29 +13 32 51.2 20.3 V 691 – Steward Observatory, Kitt Peak-Spacewatch MPS 118368
1997 12 29.44545 07 47 53.67 +13 32 51.7 20.3 V 691 – Steward Observatory, Kitt Peak-Spacewatch MPS 118368
2002 02 07.33481 10 30 24.28 +04 21 10.0 19.3   704 – Lincoln Laboratory ETS, New Mexico MPS 50310
2002 02 07.34937 10 30 23.59 +04 21 13.2 19.5   704 – Lincoln Laboratory ETS, New Mexico MPS 50310
2002 02 07.36389 10 30 23.01 +04 21 18.8 18.8   704 – Lincoln Laboratory ETS, New Mexico MPS 50310
2002 02 07.37969 10 30 22.34 +04 21 23.5 19.9   704 – Lincoln Laboratory ETS, New Mexico MPS 50310
2002 02 11.31336 10 27 29.77 +04 44 40.9 19.0   704 – Lincoln Laboratory ETS, New Mexico MPS 50310
2002 02 11.32761 10 27 29.08 +04 44 47.3 19.3   704 – Lincoln Laboratory ETS, New Mexico MPS 50310
2002 02 11.34184 10 27 28.39 +04 44 52.0 19.5   704 – Lincoln Laboratory ETS, New Mexico MPS 50310
2002 02 11.35609 10 27 27.67 +04 44 56.8 19.4   704 – Lincoln Laboratory ETS, New Mexico MPS 50310
2002 02 11.37035 10 27 26.98 +04 45 03.0 19.2   704 – Lincoln Laboratory ETS, New Mexico MPS 50310
2002 02 20.24497 10 20 09.72 +05 46 32.6 18.7   704 – Lincoln Laboratory ETS, New Mexico MPS 52696
2002 02 20.25903 10 20 08.97 +05 46 39.3 19.1   704 – Lincoln Laboratory ETS, New Mexico MPS 52696
2002 02 20.28707 10 20 07.42 +05 46 52.2 19.1   704 – Lincoln Laboratory ETS, New Mexico MPS 52696
2002 02 20.30114 10 20 06.77 +05 46 58.5 19.6   704 – Lincoln Laboratory ETS, New Mexico MPS 52696
2002 03 05.190530 10 09 19.569 +07 26 11.36 19.57 V 645 – Apache Point-Sloan Digital Sky Survey MPS 80063
2002 03 05.194002 10 09 19.397 +07 26 12.98 20.50   645 – Apache Point-Sloan Digital Sky Survey MPS 80063
2002 03 13.19497 10 03 40.86 +08 25 11.2 19.3   704 – Lincoln Laboratory ETS, New Mexico MPS 55498
2002 03 13.20843 10 03 40.40 +08 25 15.8 19.7   704 – Lincoln Laboratory ETS, New Mexico MPS 55498
2002 03 13.22195 10 03 39.79 +08 25 22.5 20.0   704 – Lincoln Laboratory ETS, New Mexico MPS 55498
2002 03 13.23550 10 03 39.31 +08 25 26.5 19.5   704 – Lincoln Laboratory ETS, New Mexico MPS 55498
2002 03 13.24904 10 03 38.77 +08 25 33.8 19.8   704 – Lincoln Laboratory ETS, New Mexico MPS 55498
2002 03 15.17786 10 02 30.21 +08 38 45.7 18.9   704 – Lincoln Laboratory ETS, New Mexico MPS 55498
2002 03 15.19138 10 02 29.68 +08 38 52.0 19.5   704 – Lincoln Laboratory ETS, New Mexico MPS 55498
2002 03 15.20517 10 02 29.26 +08 38 58.2 19.8   704 – Lincoln Laboratory ETS, New Mexico MPS 55498
2002 03 15.23194 10 02 28.20 +08 39 08.6 19.1   704 – Lincoln Laboratory ETS, New Mexico MPS 55498
2003 07 06.32948 20 27 33.05 -12 38 34.2 21.7 V 691 – Steward Observatory, Kitt Peak-Spacewatch MPS 118368
2003 07 06.35652 20 27 31.65 -12 38 38.4 21.6 V 691 – Steward Observatory, Kitt Peak-Spacewatch MPS 118368
2003 07 06.38434 20 27 30.28 -12 38 42.2 21.5 V 691 – Steward Observatory, Kitt Peak-Spacewatch MPS 118368
2004 10 09.35936 02 44 21.19 +12 32 25.7 20.7 V 691 – Steward Observatory, Kitt Peak-Spacewatch MPS 116573
2004 10 09.38653 02 44 20.05 +12 32 16.9 21.2 V 691 – Steward Observatory, Kitt Peak-Spacewatch MPS 116573
2004 10 09.41405 02 44 18.86 +12 32 08.0 20.9 V 691 – Steward Observatory, Kitt Peak-Spacewatch MPS 116573
2004 10 13.34329 02 41 29.85 +12 10 33.2 20.7 V 691 – Steward Observatory, Kitt Peak-Spacewatch MPS 116573
2004 10 13.37017 02 41 28.56 +12 10 24.1 20.6 V 691 – Steward Observatory, Kitt Peak-Spacewatch MPS 116573
2004 10 13.39776 02 41 27.24 +12 10 14.3 21.0 V 691 – Steward Observatory, Kitt Peak-Spacewatch MPS 116573
2006 02 02.49812 13 14 27.56 -08 58 13.1 21.0 V G96 – Mt. Lemmon Survey MPS 161713
2006 02 02.50413 13 14 27.81 -08 58 13.9 20.2 V G96 – Mt. Lemmon Survey MPS 161713
2006 02 02.50999 13 14 28.03 -08 58 15.0 20.7 V G96 – Mt. Lemmon Survey MPS 161713
2006 02 02.51586 13 14 28.28 -08 58 15.4 21.1 V G96 – Mt. Lemmon Survey MPS 161713
2006 02 24.49189 13 22 49.40 -08 59 20.7 20.7 V G96 – Mt. Lemmon Survey MPS 163717
2006 02 24.49936 13 22 49.47 -08 59 19.3 20.1 V G96 – Mt. Lemmon Survey MPS 163717
2006 02 24.50691 13 22 49.47 -08 59 18.1 20.1 V G96 – Mt. Lemmon Survey MPS 163717
2006 02 24.51443 13 22 49.44 -08 59 17.1 19.8 V G96 – Mt. Lemmon Survey MPS 163717
2006 03 23.36818 13 13 04.98 -06 40 44.9 19.5 V G96 – Mt. Lemmon Survey MPS 166982
2006 03 23.37449 13 13 04.65 -06 40 42.0 19.1 V G96 – Mt. Lemmon Survey MPS 166982
2006 03 23.38072 13 13 04.44 -06 40 39.2 19.3 V G96 – Mt. Lemmon Survey MPS 166982
2006 03 23.38699 13 13 04.15 -06 40 36.5 19.3 V G96 – Mt. Lemmon Survey MPS 166983
2006 04 19.24886 12 51 57.87 -03 10 26.4 19.1 R 699 – Lowell Observatory-LONEOS MPS 169119
2006 04 19.27628 12 51 56.56 -03 10 14.5   699 – Lowell Observatory-LONEOS MPS 169119
2006 04 19.30577 12 51 55.29 -03 10 01.1   699 – Lowell Observatory-LONEOS MPS 169119
2006 04 19.33601 12 51 53.95 -03 09 49.4   699 – Lowell Observatory-LONEOS MPS 169119
2006 04 20.30155 12 51 13.68 -03 03 11.7 19.8 V 703 – Catalina Sky Survey MPS 169119
2006 04 20.30850 12 51 13.32 -03 03 07.3 19.4 V 703 – Catalina Sky Survey MPS 169119
2006 04 20.31545 12 51 13.03 -03 03 06.6 19.7 V 703 – Catalina Sky Survey MPS 169119
2006 04 20.32244 12 51 12.78 -03 03 02.3 19.3 V 703 – Catalina Sky Survey MPS 169119
2006 04 24.93918 12 48 14.62 -02 33 39.3 20 R 461 – University of Szeged, Piszkesteto Stn. (Konkol MPS 169846
2006 04 24.94577 12 48 14.36 -02 33 37.0   461 – University of Szeged, Piszkesteto Stn. (Konkol MPS 169846
2006 04 24.95236 12 48 14.12 -02 33 34.6   461 – University of Szeged, Piszkesteto Stn. (Konkol MPS 169846
2006 04 25.15087 12 48 07.42 -02 32 22.3   691 – Steward Observatory, Kitt Peak-Spacewatch MPS 169846
2006 04 25.17162 12 48 06.65 -02 32 14.9   691 – Steward Observatory, Kitt Peak-Spacewatch MPS 169846
2006 04 25.19235 12 48 05.86 -02 32 07.5   691 – Steward Observatory, Kitt Peak-Spacewatch MPS 169846
2006 04 27.15716 12 46 59.06 -02 20 53.1 20.5 V 691 – Steward Observatory, Kitt Peak-Spacewatch MPS 169846
2006 04 27.17794 12 46 58.32 -02 20 46.0 20.1 V 691 – Steward Observatory, Kitt Peak-Spacewatch MPS 169846
2006 04 27.19875 12 46 57.60 -02 20 39.5 19.9 V 691 – Steward Observatory, Kitt Peak-Spacewatch MPS 169846
2008 11 01.30132 04 31 57.97 +16 20 39.1 20.4 V G96 – Mt. Lemmon Survey MPS 263067
2008 11 01.31035 04 31 57.61 +16 20 36.9 20.4 V G96 – Mt. Lemmon Survey MPS 263067
2008 11 01.31921 04 31 57.25 +16 20 34.8 20.3 V G96 – Mt. Lemmon Survey MPS 263067
2008 11 01.32818 04 31 56.92 +16 20 32.5 20.4 V G96 – Mt. Lemmon Survey MPS 263067
2008 11 20.22495 04 15 56.94 +15 02 19.6 20.0 V 691 – Steward Observatory, Kitt Peak-Spacewatch MPS 265161
2008 11 20.24258 04 15 55.91 +15 02 15.4 20.1 V 691 – Steward Observatory, Kitt Peak-Spacewatch MPS 265161
2008 11 20.26021 04 15 54.78 +15 02 10.4 19.9 V 691 – Steward Observatory, Kitt Peak-Spacewatch MPS 265161
2008 11 30.26317 04 05 36.91 +14 22 35.9 20.4   704 – Lincoln Laboratory ETS, New Mexico MPS 267412
2008 11 30.27572 04 05 36.18 +14 22 34.6 20.4   704 – Lincoln Laboratory ETS, New Mexico MPS 267412
2008 11 30.30089 04 05 34.59 +14 22 29.8 20.1   704 – Lincoln Laboratory ETS, New Mexico MPS 267412
2010 05 14.24069 15 31 38.36 -13 01 18.4   691 – Steward Observatory, Kitt Peak-Spacewatch MPS 327246
2010 05 14.25843 15 31 37.32 -13 01 13.4   691 – Steward Observatory, Kitt Peak-Spacewatch MPS 327246
2010 05 14.27614 15 31 36.29 -13 01 08.2   691 – Steward Observatory, Kitt Peak-Spacewatch MPS 327246
2010 05 17.94498 15 28 08.83 -12 43 29.6 19.2 V J75 – OAM Observatory, La Sagra MPS 328482
2010 05 17.95929 15 28 08.07 -12 43 26.5 19.2 V J75 – OAM Observatory, La Sagra MPS 328482
2010 05 17.97363 15 28 07.21 -12 43 22.1 19.7 V J75 – OAM Observatory, La Sagra MPS 328482
2010 05 19.357151 15 26 50.163 -12 36 58.89 19.76 i F51 – Pan-STARRS 1, Haleakala MPS 338761
2010 05 19.369888 15 26 49.426 -12 36 55.56 19.79 i F51 – Pan-STARRS 1, Haleakala MPS 338761
2011 09 20.33188 22 44 21.864 -05 43 55.40 21.3 w F51 – Pan-STARRS 1, Haleakala MPS 392332
2011 09 20.34697 22 44 21.137 -05 44 01.21 21.3 w F51 – Pan-STARRS 1, Haleakala MPS 392332
